Time,TemperatureF,DewpointF,PressureIn,WindDirection,WindDirectionDegrees,WindSpeedMPH,WindSpeedGustMPH,Humidity,HourlyPrecipIn,Conditions,Clouds,dailyrainin,SoftwareType,DateUTC
2013-02-11 00:03:00,31.3,25.3,30.01,WNW,283,0.0,-999.0,78,0.00,,,0.00,WeatherSnoop3.0,2013-02-11 06:03:00,
2013-02-11 00:08:00,31.4,25.0,30.01,West,270,1.0,-999.0,77,0.00,,,0.00,WeatherSnoop3.0,2013-02-11 06:08:00,
2013-02-11 00:13:00,31.4,25.3,30.01,West,276,0.0,-999.0,78,0.00,,,0.00,WeatherSnoop3.0,2013-02-11 06:13:00,
2013-02-11 00:18:00,31.0,25.0,30.01,West,276,1.0,-999.0,78,0.00,,,0.00,WeatherSnoop3.0,2013-02-11 06:18:00,
2013-02-11 00:23:00,30.8,25.1,30.01,West,273,0.0,-999.0,79,0.00,,,0.00,WeatherSnoop3.0,2013-02-11 06:23:00,
2013-02-11 00:28:00,30.8,25.1,30.02,West,273,0.0,-999.0,79,0.00,,,0.00,WeatherSnoop3.0,2013-02-11 06:28:00,
2013-02-11 00:33:00,30.9,25.2,30.01,West,278,1.0,-999.0,79,0.00,,,0.00,WeatherSnoop3.0,2013-02-11 06:33:00,
2013-02-11 00:38:00,31.0,25.0,30.01,WNW,288,2.0,-999.0,78,0.00,,,0.00,WeatherSnoop3.0,2013-02-11 06:38:00,
2013-02-11 00:43:00,31.1,25.1,30.01,West,278,1.0,-999.0,78,0.00,,,0.00,WeatherSnoop3.0,2013-02-11 06:43:00,
2013-02-11 00:48:00,31.3,24.9,30.01,West,281,1.0,-999.0,77,0.00,,,0.00,WeatherSnoop3.0,2013-02-11 06:48:00,
2013-02-11 00:53:00,31.5,24.8,30.01,West,277,2.0,-999.0,76,0.00,,,0.00,WeatherSnoop3.0,2013-02-11 06:53:00,
2013-02-11 00:58:00,31.5,24.8,30.01,WSW,250,4.0,-999.0,76,0.00,,,0.00,WeatherSnoop3.0,2013-02-11 06:58:00,
2013-02-11 01:03:00,31.4,24.7,30.01,WNW,288,3.0,-999.0,76,0.00,,,0.00,WeatherSnoop3.0,2013-02-11 07:03:00,
2013-02-11 01:08:00,31.4,24.4,30.01,West,281,3.0,-999.0,75,0.00,,,0.00,WeatherSnoop3.0,2013-02-11 07:08:00,
2013-02-11 01:13:00,31.3,24.3,30.02,West,278,1.0,-999.0,75,0.00,,,0.00,WeatherSnoop3.0,2013-02-11 07:13:00,
2013-02-11 01:18:00,31.2,24.2,30.02,WNW,295,2.0,-999.0,75,0.00,,,0.00,WeatherSnoop3.0,2013-02-11 07:18:00,
2013-02-11 01:23:00,31.1,23.8,30.02,WNW,285,3.0,-999.0,74,0.00,,,0.00,WeatherSnoop3.0,2013-02-11 07:23:00,
2013-02-11 01:28:00,30.9,23.9,30.02,West,276,1.0,-999.0,75,0.00,,,0.00,WeatherSnoop3.0,2013-02-11 07:28:00,
2013-02-11 01:33:00,30.7,23.7,30.03,WNW,285,1.0,-999.0,75,0.00,,,0.00,WeatherSnoop3.0,2013-02-11 07:33:00,
2013-02-11 01:38:00,30.5,23.5,30.03,WNW,285,1.0,-999.0,75,0.00,,,0.00,WeatherSnoop3.0,2013-02-11 07:38:00,
2013-02-11 01:43:00,30.2,23.6,30.03,WNW,291,2.0,-999.0,76,0.00,,,0.00,WeatherSnoop3.0,2013-02-11 07:43:00,
2013-02-11 01:48:00,30.0,23.4,30.03,West,274,2.0,-999.0,76,0.00,,,0.00,WeatherSnoop3.0,2013-02-11 07:48:00,
2013-02-11 01:53:00,29.6,23.3,30.04,WNW,283,2.0,-999.0,77,0.00,,,0.00,WeatherSnoop3.0,2013-02-11 07:53:00,
2013-02-11 02:03:00,29.0,23.0,30.04,WNW,288,2.0,-999.0,78,0.00,,,0.00,WeatherSnoop3.0,2013-02-11 08:03:00,
2013-02-11 02:08:00,28.8,22.8,30.04,WNW,285,1.0,-999.0,78,0.00,,,0.00,WeatherSnoop3.0,2013-02-11 08:08:00,
2013-02-11 02:13:00,28.8,22.8,30.04,West,276,1.0,-999.0,78,0.00,,,0.00,WeatherSnoop3.0,2013-02-11 08:13:00,
2013-02-11 02:18:00,28.8,22.8,30.04,West,277,2.0,-999.0,78,0.00,,,0.00,WeatherSnoop3.0,2013-02-11 08:18:00,
2013-02-11 02:23:00,28.8,22.8,30.04,West,267,1.0,-999.0,78,0.00,,,0.00,WeatherSnoop3.0,2013-02-11 08:23:00,
2013-02-11 02:28:00,28.8,23.1,30.05,West,274,3.0,-999.0,79,0.00,,,0.00,WeatherSnoop3.0,2013-02-11 08:28:00,
2013-02-11 02:33:00,28.8,23.1,30.04,WNW,302,3.0,-999.0,79,0.00,,,0.00,WeatherSnoop3.0,2013-02-11 08:33:00,
2013-02-11 02:38:00,28.9,23.2,30.04,WNW,284,3.0,-999.0,79,0.00,,,0.00,WeatherSnoop3.0,2013-02-11 08:38:00,
2013-02-11 02:43:00,29.0,23.3,30.04,West,271,3.0,-999.0,79,0.00,,,0.00,WeatherSnoop3.0,2013-02-11 08:43:00,
2013-02-11 02:48:00,29.1,23.4,30.04,WSW,257,3.0,-999.0,79,0.00,,,0.00,WeatherSnoop3.0,2013-02-11 08:48:00,
2013-02-11 02:53:00,29.3,23.3,30.04,West,274,1.0,-999.0,78,0.00,,,0.00,WeatherSnoop3.0,2013-02-11 08:53:00,
2013-02-11 02:58:00,29.6,23.3,30.04,WNW,286,3.0,-999.0,77,0.00,,,0.00,WeatherSnoop3.0,2013-02-11 08:58:00,
2013-02-11 03:03:00,29.7,23.4,30.04,WNW,285,2.0,-999.0,77,0.00,,,0.00,WeatherSnoop3.0,2013-02-11 09:03:00,
2013-02-11 03:08:00,29.7,23.4,30.04,WNW,288,0.0,-999.0,77,0.00,,,0.00,WeatherSnoop3.0,2013-02-11 09:08:00,
2013-02-11 03:13:00,29.6,23.3,30.04,West,273,4.0,-999.0,77,0.00,,,0.00,WeatherSnoop3.0,2013-02-11 09:13:00,
2013-02-11 03:18:00,29.3,23.0,30.04,WNW,295,2.0,-999.0,77,0.00,,,0.00,WeatherSnoop3.0,2013-02-11 09:18:00,
2013-02-11 03:23:00,29.1,22.8,30.05,North,8,2.0,-999.0,77,0.00,,,0.00,WeatherSnoop3.0,2013-02-11 09:23:00,
2013-02-11 03:28:00,29.0,23.0,30.05,NW,309,2.0,-999.0,78,0.00,,,0.00,WeatherSnoop3.0,2013-02-11 09:28:00,
2013-02-11 03:33:00,28.9,22.9,30.05,WNW,285,2.0,-999.0,78,0.00,,,0.00,WeatherSnoop3.0,2013-02-11 09:33:00,
2013-02-11 03:38:00,28.8,22.8,30.05,SW,232,2.0,-999.0,78,0.00,,,0.00,WeatherSnoop3.0,2013-02-11 09:38:00,
2013-02-11 03:43:00,28.7,22.7,30.05,WNW,288,1.0,-999.0,78,0.00,,,0.00,WeatherSnoop3.0,2013-02-11 09:43:00,
2013-02-11 03:48:00,28.6,22.6,30.05,WNW,285,3.0,-999.0,78,0.00,,,0.00,WeatherSnoop3.0,2013-02-11 09:48:00,
2013-02-11 03:53:00,28.5,22.5,30.05,West,277,3.0,-999.0,78,0.00,,,0.00,WeatherSnoop3.0,2013-02-11 09:53:00,
2013-02-11 03:58:00,28.4,22.7,30.06,West,260,1.0,-999.0,79,0.00,,,0.00,WeatherSnoop3.0,2013-02-11 09:58:00,
2013-02-11 04:03:00,28.2,22.5,30.06,West,266,0.0,-999.0,79,0.00,,,0.00,WeatherSnoop3.0,2013-02-11 10:03:00,
2013-02-11 04:08:00,27.9,22.5,30.07,WSW,258,0.0,-999.0,80,0.00,,,0.00,WeatherSnoop3.0,2013-02-11 10:08:00,
2013-02-11 04:13:00,27.6,22.3,30.07,WNW,285,0.0,-999.0,80,0.00,,,0.00,WeatherSnoop3.0,2013-02-11 10:13:00,
2013-02-11 04:18:00,27.2,22.2,30.07,WNW,283,0.0,-999.0,81,0.00,,,0.00,WeatherSnoop3.0,2013-02-11 10:18:00,
2013-02-11 04:23:00,26.9,22.2,30.08,West,278,1.0,-999.0,82,0.00,,,0.00,WeatherSnoop3.0,2013-02-11 10:23:00,
2013-02-11 04:28:00,26.5,21.8,30.08,West,278,0.0,-999.0,82,0.00,,,0.00,WeatherSnoop3.0,2013-02-11 10:28:00,
2013-02-11 04:33:00,26.2,21.8,30.08,WNW,282,0.0,-999.0,83,0.00,,,0.00,WeatherSnoop3.0,2013-02-11 10:33:00,
2013-02-11 04:38:00,26.1,21.9,30.08,West,277,0.0,-999.0,84,0.00,,,0.00,WeatherSnoop3.0,2013-02-11 10:38:00,
2013-02-11 04:43:00,25.9,21.7,30.08,West,270,0.0,-999.0,84,0.00,,,0.00,WeatherSnoop3.0,2013-02-11 10:43:00,
2013-02-11 04:48:00,26.1,21.9,30.08,West,280,0.0,-999.0,84,0.00,,,0.00,WeatherSnoop3.0,2013-02-11 10:48:00,
2013-02-11 04:53:00,26.2,21.8,30.08,West,280,1.0,-999.0,83,0.00,,,0.00,WeatherSnoop3.0,2013-02-11 10:53:00,
2013-02-11 04:58:00,26.2,21.8,30.08,WNW,285,1.0,-999.0,83,0.00,,,0.00,WeatherSnoop3.0,2013-02-11 10:58:00,
2013-02-11 05:03:00,26.3,21.9,30.08,West,276,2.0,-999.0,83,0.00,,,0.00,WeatherSnoop3.0,2013-02-11 11:03:00,
2013-02-11 05:08:00,26.4,22.0,30.08,WNW,288,2.0,-999.0,83,0.00,,,0.00,WeatherSnoop3.0,2013-02-11 11:08:00,
2013-02-11 05:13:00,26.5,21.8,30.08,WNW,288,0.0,-999.0,82,0.00,,,0.00,WeatherSnoop3.0,2013-02-11 11:13:00,
2013-02-11 05:18:00,26.6,21.9,30.08,West,278,2.0,-999.0,82,0.00,,,0.00,WeatherSnoop3.0,2013-02-11 11:18:00,
2013-02-11 05:23:00,26.8,22.1,30.08,West,280,2.0,-999.0,82,0.00,,,0.00,WeatherSnoop3.0,2013-02-11 11:23:00,
2013-02-11 05:28:00,26.9,21.9,30.09,West,280,0.0,-999.0,81,0.00,,,0.00,WeatherSnoop3.0,2013-02-11 11:28:00,
2013-02-11 05:33:00,27.0,22.0,30.09,West,274,0.0,-999.0,81,0.00,,,0.00,WeatherSnoop3.0,2013-02-11 11:33:00,
2013-02-11 05:38:00,26.8,21.8,30.09,WNW,285,1.0,-999.0,81,0.00,,,0.00,WeatherSnoop3.0,2013-02-11 11:38:00,
2013-02-11 05:43:00,26.8,21.8,30.09,WNW,285,2.0,-999.0,81,0.00,,,0.00,WeatherSnoop3.0,2013-02-11 11:43:00,
2013-02-11 05:48:00,26.7,21.7,30.09,West,266,1.0,-999.0,81,0.00,,,0.00,WeatherSnoop3.0,2013-02-11 11:48:00,
2013-02-11 05:53:00,26.7,21.7,30.10,West,269,0.0,-999.0,81,0.00,,,0.00,WeatherSnoop3.0,2013-02-11 11:53:00,
2013-02-11 05:58:00,26.5,21.5,30.10,West,277,0.0,-999.0,81,0.00,,,0.00,WeatherSnoop3.0,2013-02-11 11:58:00,
2013-02-11 06:03:00,26.3,21.6,30.10,WSW,250,0.0,-999.0,82,0.00,,,0.00,WeatherSnoop3.0,2013-02-11 12:03:00,
2013-02-11 06:08:00,25.9,21.2,30.10,NNE,15,0.0,-999.0,82,0.00,,,0.00,WeatherSnoop3.0,2013-02-11 12:08:00,
2013-02-11 06:13:00,25.9,21.5,30.10,SW,215,0.0,-999.0,83,0.00,,,0.00,WeatherSnoop3.0,2013-02-11 12:13:00,
2013-02-11 06:18:00,25.8,21.4,30.10,WNW,296,2.0,-999.0,83,0.00,,,0.00,WeatherSnoop3.0,2013-02-11 12:18:00,
2013-02-11 06:23:00,25.8,21.4,30.10,WNW,295,3.0,-999.0,83,0.00,,,0.00,WeatherSnoop3.0,2013-02-11 12:23:00,
2013-02-11 06:28:00,25.8,21.4,30.10,West,267,0.0,-999.0,83,0.00,,,0.00,WeatherSnoop3.0,2013-02-11 12:28:00,
2013-02-11 06:33:00,25.9,21.2,30.10,West,278,0.0,-999.0,82,0.00,,,0.00,WeatherSnoop3.0,2013-02-11 12:33:00,
2013-02-11 06:38:00,25.9,21.2,30.10,WNW,284,0.0,-999.0,82,0.00,,,0.00,WeatherSnoop3.0,2013-02-11 12:38:00,
2013-02-11 06:43:00,25.9,21.2,30.10,WNW,291,1.0,-999.0,82,0.00,,,0.00,WeatherSnoop3.0,2013-02-11 12:43:00,
2013-02-11 06:48:00,25.9,21.2,30.10,NW,309,0.0,-999.0,82,0.00,,,0.00,WeatherSnoop3.0,2013-02-11 12:48:00,
2013-02-11 06:53:00,25.8,21.4,30.10,WNW,295,0.0,-999.0,83,0.00,,,0.00,WeatherSnoop3.0,2013-02-11 12:53:00,
2013-02-11 06:58:00,25.8,21.4,30.10,WNW,296,0.0,-999.0,83,0.00,,,0.00,WeatherSnoop3.0,2013-02-11 12:58:00,
2013-02-11 07:03:00,25.7,21.3,30.10,WNW,283,0.0,-999.0,83,0.00,,,0.00,WeatherSnoop3.0,2013-02-11 13:03:00,
2013-02-11 07:08:00,25.7,21.3,30.10,West,266,0.0,-999.0,83,0.00,,,0.00,WeatherSnoop3.0,2013-02-11 13:08:00,
2013-02-11 07:13:00,25.7,21.3,30.11,WNW,288,0.0,-999.0,83,0.00,,,0.00,WeatherSnoop3.0,2013-02-11 13:13:00,
2013-02-11 07:18:00,25.7,21.3,30.11,West,263,0.0,-999.0,83,0.00,,,0.00,WeatherSnoop3.0,2013-02-11 13:18:00,
2013-02-11 07:23:00,25.7,21.0,30.12,West,273,0.0,-999.0,82,0.00,,,0.00,WeatherSnoop3.0,2013-02-11 13:23:00,
2013-02-11 07:28:00,25.6,21.2,30.13,West,274,0.0,-999.0,83,0.00,,,0.00,WeatherSnoop3.0,2013-02-11 13:28:00,
2013-02-11 07:33:00,25.5,21.1,30.13,West,274,0.0,-999.0,83,0.00,,,0.00,WeatherSnoop3.0,2013-02-11 13:33:00,
2013-02-11 07:38:00,25.2,20.8,30.13,West,274,0.0,-999.0,83,0.00,,,0.00,WeatherSnoop3.0,2013-02-11 13:38:00,
2013-02-11 07:43:00,25.1,21.0,30.13,West,274,0.0,-999.0,84,0.00,,,0.00,WeatherSnoop3.0,2013-02-11 13:43:00,
2013-02-11 07:53:00,25.3,21.2,30.14,West,274,0.0,-999.0,84,0.00,,,0.00,WeatherSnoop3.0,2013-02-11 13:53:00,
2013-02-11 07:58:00,25.6,21.5,30.14,West,274,0.0,-999.0,84,0.00,,,0.00,WeatherSnoop3.0,2013-02-11 13:58:00,
2013-02-11 08:03:00,25.9,21.5,30.15,West,273,0.0,-999.0,83,0.00,,,0.00,WeatherSnoop3.0,2013-02-11 14:03:00,
2013-02-11 08:08:00,26.2,21.8,30.15,West,269,1.0,-999.0,83,0.00,,,0.00,WeatherSnoop3.0,2013-02-11 14:08:00,
2013-02-11 08:13:00,26.6,21.9,30.15,West,276,1.0,-999.0,82,0.00,,,0.00,WeatherSnoop3.0,2013-02-11 14:13:00,
2013-02-11 08:18:00,27.1,22.3,30.15,WNW,298,0.0,-999.0,82,0.00,,,0.00,WeatherSnoop3.0,2013-02-11 14:18:00,
2013-02-11 08:23:00,27.7,22.6,30.15,West,281,0.0,-999.0,81,0.00,,,0.00,WeatherSnoop3.0,2013-02-11 14:23:00,
2013-02-11 08:28:00,28.5,23.1,30.16,West,276,0.0,-999.0,80,0.00,,,0.00,WeatherSnoop3.0,2013-02-11 14:28:00,
2013-02-11 08:33:00,29.2,23.2,30.16,WNW,295,0.0,-999.0,78,0.00,,,0.00,WeatherSnoop3.0,2013-02-11 14:33:00,
2013-02-11 08:38:00,29.8,23.5,30.16,West,269,1.0,-999.0,77,0.00,,,0.00,WeatherSnoop3.0,2013-02-11 14:38:00,
2013-02-11 08:43:00,30.3,23.3,30.17,WNW,287,3.0,-999.0,75,0.00,,,0.00,WeatherSnoop3.0,2013-02-11 14:43:00,
2013-02-11 08:48:00,30.9,23.6,30.17,SW,227,0.0,-999.0,74,0.00,,,0.00,WeatherSnoop3.0,2013-02-11 14:48:00,
2013-02-11 08:53:00,31.4,23.4,30.16,NNE,22,0.0,-999.0,72,0.00,,,0.00,WeatherSnoop3.0,2013-02-11 14:53:00,
2013-02-11 08:58:00,31.8,23.2,30.16,West,270,1.0,-999.0,70,0.00,,,0.00,WeatherSnoop3.0,2013-02-11 14:58:00,
2013-02-11 09:03:00,32.1,23.4,30.16,NNE,32,2.0,-999.0,70,0.00,,,0.00,WeatherSnoop3.0,2013-02-11 15:03:00,
2013-02-11 09:08:00,32.5,23.1,30.17,West,263,0.0,-999.0,68,0.00,,,0.00,WeatherSnoop3.0,2013-02-11 15:08:00,
2013-02-11 09:13:00,33.0,23.3,30.17,NW,323,5.0,-999.0,67,0.00,,,0.00,WeatherSnoop3.0,2013-02-11 15:13:00,
2013-02-11 09:18:00,33.5,23.0,30.17,WSW,254,2.0,-999.0,65,0.00,,,0.00,WeatherSnoop3.0,2013-02-11 15:18:00,
2013-02-11 09:23:00,33.9,23.4,30.17,NE,39,0.0,-999.0,65,0.00,,,0.00,WeatherSnoop3.0,2013-02-11 15:23:00,
2013-02-11 09:28:00,34.4,23.5,30.17,West,278,1.0,-999.0,64,0.00,,,0.00,WeatherSnoop3.0,2013-02-11 15:28:00,
2013-02-11 09:33:00,34.9,23.2,30.18,NW,315,4.0,-999.0,62,0.00,,,0.00,WeatherSnoop3.0,2013-02-11 15:33:00,
2013-02-11 09:38:00,35.1,23.0,30.17,North,4,1.0,-999.0,61,0.00,,,0.00,WeatherSnoop3.0,2013-02-11 15:38:00,
2013-02-11 09:43:00,35.4,22.5,30.18,WSW,248,1.0,-999.0,59,0.00,,,0.00,WeatherSnoop3.0,2013-02-11 15:43:00,
2013-02-11 09:48:00,35.9,22.6,30.18,NE,39,1.0,-999.0,58,0.00,,,0.00,WeatherSnoop3.0,2013-02-11 15:48:00,
2013-02-11 09:53:00,36.1,22.4,30.18,NNE,26,3.0,-999.0,57,0.00,,,0.00,WeatherSnoop3.0,2013-02-11 15:53:00,
2013-02-11 09:58:00,36.1,21.9,30.18,North,5,1.0,-999.0,56,0.00,,,0.00,WeatherSnoop3.0,2013-02-11 15:58:00,
2013-02-11 10:03:00,36.3,21.7,30.18,NW,308,4.0,-999.0,55,0.00,,,0.00,WeatherSnoop3.0,2013-02-11 16:03:00,
2013-02-11 10:08:00,36.7,22.5,30.18,NNE,13,1.0,-999.0,56,0.00,,,0.00,WeatherSnoop3.0,2013-02-11 16:08:00,
2013-02-11 10:13:00,36.9,22.3,30.18,NW,325,0.0,-999.0,55,0.00,,,0.00,WeatherSnoop3.0,2013-02-11 16:13:00,
2013-02-11 10:18:00,37.3,22.2,30.19,NNE,20,2.0,-999.0,54,0.00,,,0.00,WeatherSnoop3.0,2013-02-11 16:18:00,
2013-02-11 10:23:00,37.6,22.9,30.19,NE,53,3.0,-999.0,55,0.00,,,0.00,WeatherSnoop3.0,2013-02-11 16:23:00,
2013-02-11 10:28:00,37.6,22.0,30.19,North,359,2.0,-999.0,53,0.00,,,0.00,WeatherSnoop3.0,2013-02-11 16:28:00,
2013-02-11 10:33:00,37.5,21.5,30.19,NNE,15,4.0,-999.0,52,0.00,,,0.00,WeatherSnoop3.0,2013-02-11 16:33:00,
2013-02-11 10:38:00,37.7,22.1,30.18,North,4,2.0,-999.0,53,0.00,,,0.00,WeatherSnoop3.0,2013-02-11 16:38:00,
2013-02-11 10:43:00,38.5,21.5,30.18,WSW,240,3.0,-999.0,50,0.00,,,0.00,WeatherSnoop3.0,2013-02-11 16:43:00,
2013-02-11 10:48:00,38.5,20.0,30.18,NE,43,5.0,-999.0,47,0.00,,,0.00,WeatherSnoop3.0,2013-02-11 16:48:00,
2013-02-11 10:53:00,38.5,20.5,30.18,North,8,5.0,-999.0,48,0.00,,,0.00,WeatherSnoop3.0,2013-02-11 16:53:00,
2013-02-11 10:58:00,38.7,21.2,30.18,ENE,68,6.0,-999.0,49,0.00,,,0.00,WeatherSnoop3.0,2013-02-11 16:58:00,
2013-02-11 11:03:00,39.2,20.7,30.18,NNE,21,6.0,-999.0,47,0.00,,,0.00,WeatherSnoop3.0,2013-02-11 17:03:00,
2013-02-11 11:08:00,39.2,20.7,30.18,NNE,23,2.0,-999.0,47,0.00,,,0.00,WeatherSnoop3.0,2013-02-11 17:08:00,
2013-02-11 11:13:00,39.5,19.9,30.17,North,5,11.0,-999.0,45,0.00,,,0.00,WeatherSnoop3.0,2013-02-11 17:13:00,
2013-02-11 11:18:00,39.2,20.2,30.17,NW,305,4.0,-999.0,46,0.00,,,0.00,WeatherSnoop3.0,2013-02-11 17:18:00,
2013-02-11 11:23:00,39.8,21.2,30.17,NW,319,2.0,-999.0,47,0.00,,,0.00,WeatherSnoop3.0,2013-02-11 17:23:00,
2013-02-11 11:28:00,40.3,20.7,30.17,NNE,20,9.0,-999.0,45,0.00,,,0.00,WeatherSnoop3.0,2013-02-11 17:28:00,
2013-02-11 11:33:00,40.1,20.0,30.17,North,353,1.0,-999.0,44,0.00,,,0.00,WeatherSnoop3.0,2013-02-11 17:33:00,
2013-02-11 11:38:00,40.5,19.8,30.17,NE,35,10.0,-999.0,43,0.00,,,0.00,WeatherSnoop3.0,2013-02-11 17:38:00,
2013-02-11 11:43:00,40.1,19.4,30.17,NNE,25,7.0,-999.0,43,0.00,,,0.00,WeatherSnoop3.0,2013-02-11 17:43:00,
2013-02-11 11:48:00,40.7,20.0,30.17,NE,48,7.0,-999.0,43,0.00,,,0.00,WeatherSnoop3.0,2013-02-11 17:48:00,
2013-02-11 11:53:00,40.9,19.6,30.16,NNE,15,6.0,-999.0,42,0.00,,,0.00,WeatherSnoop3.0,2013-02-11 17:53:00,
2013-02-11 11:58:00,41.0,19.7,30.17,NNE,29,8.0,-999.0,42,0.00,,,0.00,WeatherSnoop3.0,2013-02-11 17:58:00,
2013-02-11 12:03:00,41.3,19.4,30.16,ESE,113,1.0,-999.0,41,0.00,,,0.00,WeatherSnoop3.0,2013-02-11 18:03:00,
2013-02-11 12:08:00,41.4,19.5,30.16,NNE,32,11.0,-999.0,41,0.00,,,0.00,WeatherSnoop3.0,2013-02-11 18:08:00,
2013-02-11 12:13:00,41.5,19.0,30.16,NE,34,1.0,-999.0,40,0.00,,,0.00,WeatherSnoop3.0,2013-02-11 18:13:00,
2013-02-11 12:18:00,41.6,19.7,30.15,North,11,5.0,-999.0,41,0.00,,,0.00,WeatherSnoop3.0,2013-02-11 18:18:00,
2013-02-11 12:23:00,41.8,19.3,30.15,NE,47,6.0,-999.0,40,0.00,,,0.00,WeatherSnoop3.0,2013-02-11 18:23:00,
2013-02-11 12:28:00,41.5,19.0,30.16,NE,40,3.0,-999.0,40,0.00,,,0.00,WeatherSnoop3.0,2013-02-11 18:28:00,
2013-02-11 12:33:00,42.1,19.0,30.16,NNE,26,6.0,-999.0,39,0.00,,,0.00,WeatherSnoop3.0,2013-02-11 18:33:00,
2013-02-11 12:38:00,42.0,19.5,30.15,ENE,75,3.0,-999.0,40,0.00,,,0.00,WeatherSnoop3.0,2013-02-11 18:38:00,
2013-02-11 12:43:00,42.2,19.0,30.15,NNE,19,5.0,-999.0,39,0.00,,,0.00,WeatherSnoop3.0,2013-02-11 18:43:00,
2013-02-11 12:48:00,42.7,18.9,30.15,NNW,329,4.0,-999.0,38,0.00,,,0.00,WeatherSnoop3.0,2013-02-11 18:48:00,
2013-02-11 12:53:00,43.3,19.4,30.15,ENE,74,3.0,-999.0,38,0.00,,,0.00,WeatherSnoop3.0,2013-02-11 18:53:00,
2013-02-11 12:58:00,43.4,20.1,30.14,NNW,333,6.0,-999.0,39,0.00,,,0.00,WeatherSnoop3.0,2013-02-11 18:58:00,
2013-02-11 13:03:00,43.6,19.1,30.14,NNE,32,5.0,-999.0,37,0.00,,,0.00,WeatherSnoop3.0,2013-02-11 19:03:00,
2013-02-11 13:08:00,43.5,19.6,30.14,NNE,23,9.0,-999.0,38,0.00,,,0.00,WeatherSnoop3.0,2013-02-11 19:08:00,
2013-02-11 13:13:00,42.9,19.1,30.14,NE,44,6.0,-999.0,38,0.00,,,0.00,WeatherSnoop3.0,2013-02-11 19:13:00,
2013-02-11 13:18:00,43.0,19.2,30.14,NNE,24,3.0,-999.0,38,0.00,,,0.00,WeatherSnoop3.0,2013-02-11 19:18:00,
2013-02-11 13:23:00,43.3,19.4,30.14,NNE,23,6.0,-999.0,38,0.00,,,0.00,WeatherSnoop3.0,2013-02-11 19:23:00,
2013-02-11 13:28:00,43.9,19.3,30.14,North,357,8.0,-999.0,37,0.00,,,0.00,WeatherSnoop3.0,2013-02-11 19:28:00,
2013-02-11 13:33:00,44.4,21.0,30.13,SW,220,0.0,-999.0,39,0.00,,,0.00,WeatherSnoop3.0,2013-02-11 19:33:00,
2013-02-11 13:38:00,45.3,19.9,30.13,North,5,3.0,-999.0,36,0.00,,,0.00,WeatherSnoop3.0,2013-02-11 19:38:00,
2013-02-11 13:42:00,45.1,19.8,30.13,NNE,17,3.0,-999.0,36,0.00,,,0.00,WeatherSnoop3.0,2013-02-11 19:42:00,
2013-02-11 13:48:00,44.4,20.4,30.12,NE,40,2.0,-999.0,38,0.00,,,0.00,WeatherSnoop3.0,2013-02-11 19:48:00,
2013-02-11 13:57:00,44.1,19.5,30.12,NNE,19,1.0,-999.0,37,0.00,,,0.00,WeatherSnoop3.0,2013-02-11 19:57:00,
2013-02-11 14:03:00,44.3,19.7,30.12,ENE,68,2.0,-999.0,37,0.00,,,0.00,WeatherSnoop3.0,2013-02-11 20:03:00,
2013-02-11 14:07:00,44.2,19.6,30.12,NNE,30,0.0,-999.0,37,0.00,,,0.00,WeatherSnoop3.0,2013-02-11 20:07:00,
2013-02-11 14:12:00,44.8,20.1,30.11,NW,311,0.0,-999.0,37,0.00,,,0.00,WeatherSnoop3.0,2013-02-11 20:12:00,
2013-02-11 14:17:00,45.3,19.3,30.11,West,269,1.0,-999.0,35,0.00,,,0.00,WeatherSnoop3.0,2013-02-11 20:17:00,
2013-02-11 14:22:00,45.7,19.6,30.11,NW,305,0.0,-999.0,35,0.00,,,0.00,WeatherSnoop3.0,2013-02-11 20:22:00,
2013-02-11 14:27:00,46.1,20.0,30.11,NNE,29,1.0,-999.0,35,0.00,,,0.00,WeatherSnoop3.0,2013-02-11 20:27:00,
2013-02-11 14:32:00,46.0,19.9,30.10,NNW,342,0.0,-999.0,35,0.00,,,0.00,WeatherSnoop3.0,2013-02-11 20:32:00,
2013-02-11 14:37:00,45.6,18.9,30.10,NNW,331,1.0,-999.0,34,0.00,,,0.00,WeatherSnoop3.0,2013-02-11 20:37:00,
2013-02-11 14:42:00,45.3,19.3,30.10,North,6,0.0,-999.0,35,0.00,,,0.00,WeatherSnoop3.0,2013-02-11 20:42:00,
2013-02-11 14:47:00,45.3,19.9,30.10,NNE,23,5.0,-999.0,36,0.00,,,0.00,WeatherSnoop3.0,2013-02-11 20:47:00,
2013-02-11 14:52:00,45.4,20.0,30.10,WNW,302,1.0,-999.0,36,0.00,,,0.00,WeatherSnoop3.0,2013-02-11 20:52:00,
2013-02-11 14:57:00,45.0,19.0,30.10,NE,46,2.0,-999.0,35,0.00,,,0.00,WeatherSnoop3.0,2013-02-11 20:57:00,
2013-02-11 15:02:00,45.1,20.4,30.10,North,4,2.0,-999.0,37,0.00,,,0.00,WeatherSnoop3.0,2013-02-11 21:02:00,
2013-02-11 15:07:00,45.5,20.1,30.09,NE,51,4.0,-999.0,36,0.00,,,0.00,WeatherSnoop3.0,2013-02-11 21:07:00,
2013-02-11 15:12:00,45.3,19.9,30.09,North,4,2.0,-999.0,36,0.00,,,0.00,WeatherSnoop3.0,2013-02-11 21:12:00,
2013-02-11 15:17:00,45.2,19.2,30.09,NNE,32,2.0,-999.0,35,0.00,,,0.00,WeatherSnoop3.0,2013-02-11 21:17:00,
2013-02-11 15:22:00,45.4,19.4,30.09,ENE,59,2.0,-999.0,35,0.00,,,0.00,WeatherSnoop3.0,2013-02-11 21:22:00,
2013-02-11 15:27:00,45.5,20.1,30.09,NNE,26,6.0,-999.0,36,0.00,,,0.00,WeatherSnoop3.0,2013-02-11 21:27:00,
2013-02-11 15:32:00,45.6,20.8,30.09,ENE,70,1.0,-999.0,37,0.00,,,0.00,WeatherSnoop3.0,2013-02-11 21:32:00,
2013-02-11 15:37:00,45.6,20.2,30.09,North,351,0.0,-999.0,36,0.00,,,0.00,WeatherSnoop3.0,2013-02-11 21:37:00,
2013-02-11 15:42:00,45.7,20.3,30.09,NE,47,5.0,-999.0,36,0.00,,,0.00,WeatherSnoop3.0,2013-02-11 21:42:00,
2013-02-11 15:47:00,45.3,19.3,30.09,South,183,0.0,-999.0,35,0.00,,,0.00,WeatherSnoop3.0,2013-02-11 21:47:00,
2013-02-11 15:52:00,45.5,20.1,30.09,North,354,3.0,-999.0,36,0.00,,,0.00,WeatherSnoop3.0,2013-02-11 21:52:00,
2013-02-11 15:57:00,45.7,19.6,30.09,NNE,13,2.0,-999.0,35,0.00,,,0.00,WeatherSnoop3.0,2013-02-11 21:57:00,
2013-02-11 16:02:00,45.9,19.8,30.09,North,351,0.0,-999.0,35,0.00,,,0.00,WeatherSnoop3.0,2013-02-11 22:02:00,
2013-02-11 16:07:00,45.8,19.7,30.09,NNE,25,2.0,-999.0,35,0.00,,,0.00,WeatherSnoop3.0,2013-02-11 22:07:00,
2013-02-11 16:12:00,45.7,19.6,30.09,NNE,13,2.0,-999.0,35,0.00,,,0.00,WeatherSnoop3.0,2013-02-11 22:12:00,
2013-02-11 16:17:00,45.3,19.9,30.09,NNE,27,1.0,-999.0,36,0.00,,,0.00,WeatherSnoop3.0,2013-02-11 22:17:00,
2013-02-11 16:22:00,45.2,19.9,30.08,ENE,71,0.0,-999.0,36,0.00,,,0.00,WeatherSnoop3.0,2013-02-11 22:22:00,
2013-02-11 16:27:00,45.4,20.7,30.08,NE,37,5.0,-999.0,37,0.00,,,0.00,WeatherSnoop3.0,2013-02-11 22:27:00,
2013-02-11 16:32:00,45.2,19.2,30.08,NE,34,4.0,-999.0,35,0.00,,,0.00,WeatherSnoop3.0,2013-02-11 22:32:00,
2013-02-11 16:37:00,45.0,19.7,30.08,NE,53,2.0,-999.0,36,0.00,,,0.00,WeatherSnoop3.0,2013-02-11 22:37:00,
2013-02-11 16:42:00,45.3,19.9,30.08,NNE,22,0.0,-999.0,36,0.00,,,0.00,WeatherSnoop3.0,2013-02-11 22:42:00,
2013-02-11 16:47:00,45.3,19.3,30.08,NNW,338,2.0,-999.0,35,0.00,,,0.00,WeatherSnoop3.0,2013-02-11 22:47:00,
2013-02-11 16:52:00,45.1,19.8,30.08,NNE,18,1.0,-999.0,36,0.00,,,0.00,WeatherSnoop3.0,2013-02-11 22:52:00,
2013-02-11 16:57:00,44.9,18.9,30.08,North,5,0.0,-999.0,35,0.00,,,0.00,WeatherSnoop3.0,2013-02-11 22:57:00,
2013-02-11 17:02:00,44.6,19.3,30.08,NE,49,1.0,-999.0,36,0.00,,,0.00,WeatherSnoop3.0,2013-02-11 23:02:00,
2013-02-11 17:07:00,44.4,19.1,30.08,North,359,3.0,-999.0,36,0.00,,,0.00,WeatherSnoop3.0,2013-02-11 23:07:00,
2013-02-11 17:12:00,44.1,19.5,30.08,NNE,26,1.0,-999.0,37,0.00,,,0.00,WeatherSnoop3.0,2013-02-11 23:12:00,
2013-02-11 17:17:00,43.9,20.0,30.08,NE,46,3.0,-999.0,38,0.00,,,0.00,WeatherSnoop3.0,2013-02-11 23:17:00,
2013-02-11 17:22:00,43.7,21.0,30.08,ENE,65,0.0,-999.0,40,0.00,,,0.00,WeatherSnoop3.0,2013-02-11 23:22:00,
2013-02-11 17:27:00,43.6,20.9,30.08,ENE,59,1.0,-999.0,40,0.00,,,0.00,WeatherSnoop3.0,2013-02-11 23:27:00,
2013-02-11 17:32:00,43.3,21.2,30.08,NE,37,2.0,-999.0,41,0.00,,,0.00,WeatherSnoop3.0,2013-02-11 23:32:00,
2013-02-11 17:37:00,43.1,21.6,30.08,ENE,68,0.0,-999.0,42,0.00,,,0.00,WeatherSnoop3.0,2013-02-11 23:37:00,
2013-02-11 17:42:00,42.8,20.8,30.08,NE,41,1.0,-999.0,41,0.00,,,0.00,WeatherSnoop3.0,2013-02-11 23:42:00,
2013-02-11 17:47:00,42.5,21.6,30.08,ENE,59,0.0,-999.0,43,0.00,,,0.00,WeatherSnoop3.0,2013-02-11 23:47:00,
2013-02-11 17:52:00,41.9,21.6,30.08,ENE,60,0.0,-999.0,44,0.00,,,0.00,WeatherSnoop3.0,2013-02-11 23:52:00,
2013-02-11 17:57:00,41.4,20.6,30.08,ENE,60,0.0,-999.0,43,0.00,,,0.00,WeatherSnoop3.0,2013-02-11 23:57:00,
2013-02-11 18:02:00,40.8,20.6,30.08,ENE,60,0.0,-999.0,44,0.00,,,0.00,WeatherSnoop3.0,2013-02-12 00:02:00,
2013-02-11 18:07:00,40.2,20.6,30.08,ENE,60,0.0,-999.0,45,0.00,,,0.00,WeatherSnoop3.0,2013-02-12 00:07:00,
2013-02-11 18:12:00,39.5,20.5,30.08,ENE,60,0.0,-999.0,46,0.00,,,0.00,WeatherSnoop3.0,2013-02-12 00:12:00,
2013-02-11 18:17:00,38.4,20.9,30.08,ENE,60,0.0,-999.0,49,0.00,,,0.00,WeatherSnoop3.0,2013-02-12 00:17:00,
2013-02-11 18:22:00,37.2,20.8,30.08,ENE,60,0.0,-999.0,51,0.00,,,0.00,WeatherSnoop3.0,2013-02-12 00:22:00,
2013-02-11 18:27:00,35.9,20.9,30.08,ENE,60,0.0,-999.0,54,0.00,,,0.00,WeatherSnoop3.0,2013-02-12 00:27:00,
2013-02-11 18:32:00,34.6,20.5,30.09,ENE,59,0.0,-999.0,56,0.00,,,0.00,WeatherSnoop3.0,2013-02-12 00:32:00,
2013-02-11 18:37:00,33.5,20.3,30.09,ENE,60,0.0,-999.0,58,0.00,,,0.00,WeatherSnoop3.0,2013-02-12 00:37:00,
2013-02-11 18:42:00,32.9,20.2,30.09,ENE,60,0.0,-999.0,59,0.00,,,0.00,WeatherSnoop3.0,2013-02-12 00:42:00,
2013-02-11 18:47:00,32.4,20.1,30.09,ENE,59,0.0,-999.0,60,0.00,,,0.00,WeatherSnoop3.0,2013-02-12 00:47:00,
2013-02-11 18:52:00,31.6,20.1,30.09,ENE,60,0.0,-999.0,62,0.00,,,0.00,WeatherSnoop3.0,2013-02-12 00:52:00,
2013-02-11 18:57:00,30.8,20.1,30.09,ENE,59,0.0,-999.0,64,0.00,,,0.00,WeatherSnoop3.0,2013-02-12 00:57:00,
2013-02-11 19:02:00,29.8,19.9,30.09,ENE,59,0.0,-999.0,66,0.00,,,0.00,WeatherSnoop3.0,2013-02-12 01:02:00,
2013-02-11 19:07:00,29.2,19.6,30.09,ENE,59,0.0,-999.0,67,0.00,,,0.00,WeatherSnoop3.0,2013-02-12 01:07:00,
2013-02-11 19:12:00,28.8,19.6,30.09,ENE,59,0.0,-999.0,68,0.00,,,0.00,WeatherSnoop3.0,2013-02-12 01:12:00,
2013-02-11 19:17:00,28.3,19.8,30.09,ENE,60,0.0,-999.0,70,0.00,,,0.00,WeatherSnoop3.0,2013-02-12 01:17:00,
2013-02-11 19:22:00,28.2,19.7,30.10,ENE,60,0.0,-999.0,70,0.00,,,0.00,WeatherSnoop3.0,2013-02-12 01:22:00,
2013-02-11 19:27:00,28.1,19.6,30.09,ENE,60,0.0,-999.0,70,0.00,,,0.00,WeatherSnoop3.0,2013-02-12 01:27:00,
2013-02-11 19:32:00,27.8,19.3,30.09,ENE,59,0.0,-999.0,70,0.00,,,0.00,WeatherSnoop3.0,2013-02-12 01:32:00,
2013-02-11 19:37:00,27.4,19.3,30.09,ENE,59,0.0,-999.0,71,0.00,,,0.00,WeatherSnoop3.0,2013-02-12 01:37:00,
2013-02-11 19:42:00,26.9,18.8,30.09,ENE,60,0.0,-999.0,71,0.00,,,0.00,WeatherSnoop3.0,2013-02-12 01:42:00,
2013-02-11 19:47:00,26.3,18.5,30.09,ENE,59,0.0,-999.0,72,0.00,,,0.00,WeatherSnoop3.0,2013-02-12 01:47:00,
2013-02-11 19:52:00,26.5,19.0,30.09,ENE,60,0.0,-999.0,73,0.00,,,0.00,WeatherSnoop3.0,2013-02-12 01:52:00,
2013-02-11 19:57:00,26.7,19.2,30.09,ENE,59,0.0,-999.0,73,0.00,,,0.00,WeatherSnoop3.0,2013-02-12 01:57:00,
2013-02-11 20:02:00,26.4,18.6,30.10,ENE,60,0.0,-999.0,72,0.00,,,0.00,WeatherSnoop3.0,2013-02-12 02:02:00,
2013-02-11 20:07:00,26.2,19.4,30.10,ENE,60,0.0,-999.0,75,0.00,,,0.00,WeatherSnoop3.0,2013-02-12 02:07:00,
2013-02-11 20:12:00,26.3,19.8,30.10,ENE,59,0.0,-999.0,76,0.00,,,0.00,WeatherSnoop3.0,2013-02-12 02:12:00,
2013-02-11 20:17:00,26.2,19.7,30.10,ENE,59,0.0,-999.0,76,0.00,,,0.00,WeatherSnoop3.0,2013-02-12 02:17:00,
2013-02-11 20:22:00,26.2,19.7,30.10,ENE,60,0.0,-999.0,76,0.00,,,0.00,WeatherSnoop3.0,2013-02-12 02:22:00,
2013-02-11 20:27:00,26.7,19.9,30.10,ENE,59,0.0,-999.0,75,0.00,,,0.00,WeatherSnoop3.0,2013-02-12 02:27:00,
2013-02-11 20:32:00,27.0,19.5,30.10,ENE,59,0.0,-999.0,73,0.00,,,0.00,WeatherSnoop3.0,2013-02-12 02:32:00,
2013-02-11 20:37:00,26.7,19.9,30.10,ENE,59,0.0,-999.0,75,0.00,,,0.00,WeatherSnoop3.0,2013-02-12 02:37:00,
2013-02-11 20:42:00,26.3,19.2,30.10,ENE,60,0.0,-999.0,74,0.00,,,0.00,WeatherSnoop3.0,2013-02-12 02:42:00,
2013-02-11 20:47:00,27.0,19.5,30.10,ENE,59,0.0,-999.0,73,0.00,,,0.00,WeatherSnoop3.0,2013-02-12 02:47:00,
2013-02-11 20:52:00,27.2,19.7,30.10,ENE,59,0.0,-999.0,73,0.00,,,0.00,WeatherSnoop3.0,2013-02-12 02:52:00,
2013-02-11 20:57:00,27.2,19.7,30.10,ENE,59,0.0,-999.0,73,0.00,,,0.00,WeatherSnoop3.0,2013-02-12 02:57:00,
2013-02-11 21:02:00,27.3,20.1,30.11,ENE,60,0.0,-999.0,74,0.00,,,0.00,WeatherSnoop3.0,2013-02-12 03:02:00,
2013-02-11 21:07:00,27.4,20.2,30.11,ENE,59,0.0,-999.0,74,0.00,,,0.00,WeatherSnoop3.0,2013-02-12 03:07:00,
2013-02-11 21:12:00,27.5,20.6,30.11,ENE,60,0.0,-999.0,75,0.00,,,0.00,WeatherSnoop3.0,2013-02-12 03:12:00,
2013-02-11 21:17:00,27.3,20.4,30.11,ENE,59,0.0,-999.0,75,0.00,,,0.00,WeatherSnoop3.0,2013-02-12 03:17:00,
2013-02-11 21:22:00,26.8,19.6,30.11,ENE,60,0.0,-999.0,74,0.00,,,0.00,WeatherSnoop3.0,2013-02-12 03:22:00,
2013-02-11 21:27:00,26.8,20.3,30.11,ENE,59,0.0,-999.0,76,0.00,,,0.00,WeatherSnoop3.0,2013-02-12 03:27:00,
2013-02-11 21:32:00,27.4,20.5,30.12,ENE,59,0.0,-999.0,75,0.00,,,0.00,WeatherSnoop3.0,2013-02-12 03:32:00,
2013-02-11 21:37:00,27.8,20.3,30.12,ENE,60,0.0,-999.0,73,0.00,,,0.00,WeatherSnoop3.0,2013-02-12 03:37:00,
2013-02-11 21:42:00,28.1,20.6,30.12,ENE,60,0.0,-999.0,73,0.00,,,0.00,WeatherSnoop3.0,2013-02-12 03:42:00,
2013-02-11 21:47:00,28.3,21.7,30.12,ENE,59,0.0,-999.0,76,0.00,,,0.00,WeatherSnoop3.0,2013-02-12 03:47:00,
2013-02-11 21:52:00,28.2,21.3,30.12,ENE,59,0.0,-999.0,75,0.00,,,0.00,WeatherSnoop3.0,2013-02-12 03:52:00,
2013-02-11 21:57:00,28.5,21.3,30.12,ENE,60,0.0,-999.0,74,0.00,,,0.00,WeatherSnoop3.0,2013-02-12 03:57:00,
2013-02-11 22:02:00,28.5,21.3,30.12,ENE,60,0.0,-999.0,74,0.00,,,0.00,WeatherSnoop3.0,2013-02-12 04:02:00,
2013-02-11 22:07:00,28.7,21.2,30.13,NW,323,0.0,-999.0,73,0.00,,,0.00,WeatherSnoop3.0,2013-02-12 04:07:00,
2013-02-11 22:12:00,29.7,22.4,30.13,NW,323,0.0,-999.0,74,0.00,,,0.00,WeatherSnoop3.0,2013-02-12 04:12:00,
2013-02-11 22:17:00,30.0,22.7,30.13,NW,323,0.0,-999.0,74,0.00,,,0.00,WeatherSnoop3.0,2013-02-12 04:17:00,
2013-02-11 22:22:00,30.4,22.1,30.14,North,8,0.0,-999.0,71,0.00,,,0.00,WeatherSnoop3.0,2013-02-12 04:22:00,
2013-02-11 22:27:00,31.4,22.1,30.13,North,6,0.0,-999.0,68,0.00,,,0.00,WeatherSnoop3.0,2013-02-12 04:27:00,
2013-02-11 22:32:00,31.9,22.2,30.13,North,11,0.0,-999.0,67,0.00,,,0.00,WeatherSnoop3.0,2013-02-12 04:32:00,
2013-02-11 22:37:00,31.9,22.2,30.13,North,11,0.0,-999.0,67,0.00,,,0.00,WeatherSnoop3.0,2013-02-12 04:37:00,
2013-02-11 22:42:00,31.7,22.4,30.13,North,11,0.0,-999.0,68,0.00,,,0.00,WeatherSnoop3.0,2013-02-12 04:42:00,
2013-02-11 22:47:00,31.3,23.0,30.13,North,11,0.0,-999.0,71,0.00,,,0.00,WeatherSnoop3.0,2013-02-12 04:47:00,
2013-02-11 22:52:00,31.0,22.7,30.14,North,11,0.0,-999.0,71,0.00,,,0.00,WeatherSnoop3.0,2013-02-12 04:52:00,
2013-02-11 22:57:00,31.0,22.7,30.14,North,11,0.0,-999.0,71,0.00,,,0.00,WeatherSnoop3.0,2013-02-12 04:57:00,
2013-02-11 23:02:00,30.9,23.3,30.13,North,11,0.0,-999.0,73,0.00,,,0.00,WeatherSnoop3.0,2013-02-12 05:02:00,
2013-02-11 23:07:00,30.6,23.6,30.13,North,11,0.0,-999.0,75,0.00,,,0.00,WeatherSnoop3.0,2013-02-12 05:07:00,
2013-02-11 23:12:00,30.6,23.0,30.13,North,11,0.0,-999.0,73,0.00,,,0.00,WeatherSnoop3.0,2013-02-12 05:12:00,
2013-02-11 23:17:00,30.6,22.7,30.13,North,10,0.0,-999.0,72,0.00,,,0.00,WeatherSnoop3.0,2013-02-12 05:17:00,
2013-02-11 23:22:00,30.6,22.7,30.13,North,11,0.0,-999.0,72,0.00,,,0.00,WeatherSnoop3.0,2013-02-12 05:22:00,
2013-02-11 23:27:00,30.9,22.3,30.13,North,8,0.0,-999.0,70,0.00,,,0.00,WeatherSnoop3.0,2013-02-12 05:27:00,
2013-02-11 23:32:00,31.3,22.3,30.14,NNE,19,0.0,-999.0,69,0.00,,,0.00,WeatherSnoop3.0,2013-02-12 05:32:00,
2013-02-11 23:37:00,31.5,22.9,30.14,NNE,26,0.0,-999.0,70,0.00,,,0.00,WeatherSnoop3.0,2013-02-12 05:37:00,
2013-02-11 23:42:00,31.5,22.9,30.14,NNE,26,0.0,-999.0,70,0.00,,,0.00,WeatherSnoop3.0,2013-02-12 05:42:00,
2013-02-11 23:47:00,31.6,22.6,30.14,NNE,32,0.0,-999.0,69,0.00,,,0.00,WeatherSnoop3.0,2013-02-12 05:47:00,
2013-02-11 23:52:00,31.4,22.4,30.14,NE,39,0.0,-999.0,69,0.00,,,0.00,WeatherSnoop3.0,2013-02-12 05:52:00,
2013-02-11 23:57:00,31.3,22.3,30.14,North,8,0.0,-999.0,69,0.00,,,0.00,WeatherSnoop3.0,2013-02-12 05:57:00,